Tracking 29967 objects as of 5-Dec-2024
HD Live streaming from Space Station
objects crossing your sky now

STARLINK-30546

Track STARLINK-30546 now!
10-day predictions
STARLINK-30546 is classified as:


NORAD ID: 58003
Int'l Code: 2023-153N
Perigee: 565.6 km
Apogee: 566.8 km
Inclination: 43.0 °
Period: 95.8 minutes
Semi major axis: 6937 km
RCS: Unknown
Launch date: October 5, 2023
Source: United States (US)
Launch site: AIR FORCE EASTERN TEST RANGE (AFETR)
Your satellite tracking list
Your tracking list is empty




NASA's NSSDC Master Catalog

Two Line Element Set (TLE):
1 58003U 23153N   24340.50404481 -.00001289  00000-0 -80381-4 0  9995
2 58003  43.0037  43.7737 0000818 269.0175  91.0573 15.02537905 65804
Source of the keplerian elements: AFSPC